Weather reports worldwide

Advertisment
Gardelegen, Germany (10359): temperature & dewpoint: 29.05.2020 19:00:00 - 04.06.2020 19:00:00 (CEST)Gardelegen, Germany (10359): temperature 5cm & temperature -5cm: 29.05.2020 19:00:00 - 04.06.2020 19:00:00 (CEST)Gardelegen, Germany (10359): temperature -20cm & temperature -100cm: 29.05.2020 19:00:00 - 04.06.2020 19:00:00 (CEST)Gardelegen, Germany (10359): wind speed & gusts: 29.05.2020 19:00:00 - 04.06.2020 19:00:00 (CEST)Gardelegen, Germany (10359): wind direction: 29.05.2020 19:00:00 - 04.06.2020 19:00:00 (CEST)Gardelegen, Germany (10359): reduced air pressure: 29.05.2020 19:00:00 - 04.06.2020 19:00:00 (CEST)Gardelegen, Germany (10359): visibility: 29.05.2020 19:00:00 - 04.06.2020 19:00:00 (CEST)Gardelegen, Germany (10359): sunshine duration: 29.05.2020 19:00:00 - 04.06.2020 19:00:00 (CEST)Gardelegen, Germany (10359): precipitation: 29.05.2020 19:00:00 - 04.06.2020 19:00:00 (CEST)
Date & Time tt [°C] td [°C] tt 5cm [°C] tt -5cm [°C] tt -20cm [°C] tt -100cm [°C] ff [km/h] ff [kn] fx [km/h] fx [kn] dd ppp [hPa] vv [km] sd [min] rr [mm]
04.06.2020 19:00:00 15,1 14,1 15,0 19,1 20,2 16,3 7 4 29 16 SW 992,2 9 0 1,3
04.06.2020 18:00:00 17,7 13,2 17,7 20,5 20,3 16,4 13 7 22 12 S 992,2 59 0 0,0
04.06.2020 17:00:00 18,2 14,1 18,8 21,9 20,1 16,4 11 6 20 11 S 992,8 36 0 0,0
04.06.2020 16:00:00 18,6 14,4 20,4 22,4 19,9 16,4 5 3 8 5 WSW 993,3 34 0 0,0
04.06.2020 15:00:00 17,9 15,4 18,4 21,2 19,7 16,4 7 4 14 7 W 993,7 25 0 0,2
04.06.2020 14:00:00 18,6 14,4 18,5 21,1 19,6 16,4 5 3 12 7 WSW 994,4 48 0 0,2
04.06.2020 13:00:00 19,1 13,0 18,1 20,7 19,4 16,4 0 0 14 8 N 994,6 31 0 0,2
04.06.2020 12:00:00 19,3 12,5 18,6 21,2 19,1 16,3 11 6 21 11 SSE 994,7 33 4 0,0
04.06.2020 11:00:00 19,6 12,5 21,4 21,4 18,6 16,3 7 4 21 11 ESE 995,0 52 18 0,0
04.06.2020 10:00:00 18,3 12,5 19,7 20,3 18,3 16,3 6 4 15 8 SE 995,5 52 30 0,0
04.06.2020 09:00:00 15,1 12,6 15,0 17,2 18,3 16,3 4 2 11 6 SE 996,2 35 0 0,0
04.06.2020 08:00:00 14,4 13,3 14,1 16,6 18,4 16,3 4 2 7 4 E 996,7 22 0 0,1
04.06.2020 07:00:00 14,1 12,7 13,8 16,3 18,7 16,3 4 2 8 5 N 997,3 31 0 0,0
04.06.2020 06:00:00 13,6 12,6 13,3 16,0 18,9 16,3 4 2 10 5 NW 997,5 39 0 0,1
04.06.2020 05:00:00 13,6 12,4 13,0 16,0 19,3 16,2 4 2 13 7 E 998,1 34 0 0,6
04.06.2020 04:00:00 13,4 11,9 13,0 16,1 19,7 16,2 2 1 6 3 ESE 999,1 47 0 0,0
04.06.2020 03:00:00 12,8 12,0 12,0 16,5 20,1 16,2 4 2 8 4 S 1000,2 38 0 0,0
04.06.2020 02:00:00 13,7 12,4 13,2 17,3 20,6 16,2 3 1 6 3 W 1000,2 43 0 0,0
04.06.2020 01:00:00 14,9 11,7 14,3 17,6 21,0 16,2 4 2 12 7 E 1000,4 59 0 0,0
04.06.2020 00:00:00 14,3 12,8 14,1 18,1 21,5 16,2 4 2 7 4 SSW 1001,6 51 0 0,0
03.06.2020 23:00:00 15,6 12,5 15,0 18,6 22,1 16,1 4 2 15 8 ENE 1002,4 59 0 0,0
03.06.2020 22:00:00 15,8 12,5 14,4 19,3 22,7 16,1 3 2 17 9 N 1003,0 58 0 0,0
03.06.2020 21:00:00 16,1 12,8 15,7 20,1 23,3 16,1 8 4 16 8 S 1002,5 66 0 0,0
03.06.2020 20:00:00 16,8 12,1 17,3 21,6 23,9 16,1 7 4 22 12 ENE 1002,7 68 20 0,0
03.06.2020 19:00:00 16,5 13,3 16,1 22,0 24,7 16,1 10 5 22 12 ESE 1003,4 65 0 0,7
03.06.2020 18:00:00 16,5 12,2 14,7 22,6 25,6 16,1 14 8 31 17 E 1003,6 16 0 3,1
03.06.2020 17:00:00 18,7 11,7 15,7 27,7 25,8 16,0 9 5 44 24 W 1003,9 42 0 2,5
03.06.2020 16:00:00 25,5 7,0 26,2 32,7 25,2 16,0 10 5 23 13 E 1002,7 63 27 0,0
03.06.2020 15:00:00 27,6 7,2 32,7 32,8 24,4 16,0 9 5 21 11 E 1003,2 60 32 0,0
03.06.2020 14:00:00 26,7 7,7 33,1 33,0 23,3 16,0 9 5 24 13 ENE 1004,4 75 40 0,0
03.06.2020 13:00:00 25,9 6,8 32,2 31,8 22,3 16,0 9 5 25 13 SSE 1005,1 58 59 0,0
03.06.2020 12:00:00 24,8 7,2 28,6 28,3 21,4 15,9 6 3 18 10 SE 1005,8 58 46 0,0
03.06.2020 11:00:00 24,0 8,5 27,2 26,0 20,8 15,9 6 3 14 8 SSE 1006,4 56 41 0,0
03.06.2020 10:00:00 22,9 9,2 25,4 23,9 20,3 15,9 8 4 20 11 SE 1007,0 60 58 0,0
03.06.2020 09:00:00 20,6 9,3 22,0 20,8 20,1 15,8 5 3 10 6 S 1007,6 63 32 0,0
03.06.2020 08:00:00 18,5 8,7 21,1 18,6 20,3 15,8 3 1 5 3 ENE 1008,1 59 58 0,0
03.06.2020 07:00:00 12,3 8,9 13,2 16,3 20,7 15,8 0 0 2 1 N 1008,5 46 60 0,0
03.06.2020 06:00:00 8,7 7,3 7,9 16,4 21,3 15,7 2 1 5 3 S 1009,1 51 19 0,0
03.06.2020 05:00:00 8,9 7,5 7,4 17,0 22,0 15,7 0 0 3 1 N 1009,3 50 0 0,0
03.06.2020 04:00:00 8,8 7,4 7,6 17,9 22,7 15,7 3 1 3 2 SSW 1009,9 53 0 0,0
03.06.2020 03:00:00 9,7 8,0 8,5 18,9 23,4 15,6 2 1 3 1 SW 1010,4 56 0 0,0
03.06.2020 02:00:00 10,6 8,7 9,0 20,0 24,1 15,6 2 1 3 2 W 1011,0 48 0 0,0
03.06.2020 01:00:00 12,0 9,4 10,4 21,3 24,9 15,6 0 0 3 1 S 1011,6 50 0 0,0
03.06.2020 00:00:00 13,1 9,9 11,5 22,7 25,6 15,6 2 1 3 1 S 1011,9 35 0 0,0
02.06.2020 23:00:00 14,9 10,3 13,0 24,4 26,4 15,5 0 0 4 2 N 1012,4 18 0 0,0
02.06.2020 22:00:00 18,3 9,9 14,7 26,6 27,0 15,5 0 0 7 4 N 1012,5 24 0 0,0
02.06.2020 21:00:00 23,5 7,6 21,5 29,1 27,4 15,5 7 4 15 8 N 1012,5 63 39 0,0
02.06.2020 20:00:00 25,9 6,6 26,9 31,5 27,6 15,5 9 5 18 10 NNW 1012,8 75 60 0,0
02.06.2020 19:00:00 26,4 6,4 28,9 33,6 27,4 15,5 11 6 18 10 N 1013,4 65 60 0,0
02.06.2020 18:00:00 26,8 5,1 30,5 35,2 26,9 15,5 8 5 18 10 NW 1014,0 67 60 0,0
02.06.2020 17:00:00 26,5 3,6 30,6 36,2 26,2 15,5 5 3 15 8 NNE 1014,9 62 60 0,0
02.06.2020 16:00:00 26,4 4,6 32,1 36,3 25,2 15,5 8 4 16 9 N 1015,9 75 60 0,0
02.06.2020 15:00:00 26,2 5,7 33,5 35,7 24,0 15,4 7 4 18 10 N 1017,0 49 60 0,0
02.06.2020 14:00:00 24,9 5,7 31,6 34,6 22,7 15,4 8 5 18 10 NW 1017,9 59 60 0,0
02.06.2020 13:00:00 23,6 4,8 31,7 32,6 21,3 15,4 6 3 19 10 N 1018,8 66 60 0,0
02.06.2020 12:00:00 23,5 5,4 30,0 29,9 20,1 15,4 7 4 13 7 NNW 1019,6 62 60 0,0
02.06.2020 11:00:00 21,9 4,9 26,8 26,6 19,1 15,4 7 4 15 8 WSW 1020,3 42 60 0,0
02.06.2020 10:00:00 20,7 5,4 25,3 22,8 18,4 15,3 5 3 10 5 N 1021,0 69 60 0,0
02.06.2020 09:00:00 18,2 5,5 22,5 19,1 18,2 15,3 4 2 11 6 N 1021,5 62 60 0,0
02.06.2020 08:00:00 15,4 5,0 18,7 15,7 18,4 15,3 3 2 8 4 NE 1021,7 58 60 0,0
02.06.2020 07:00:00 10,2 6,5 10,9 13,9 18,9 15,2 2 1 3 2 S 1021,9 62 60 0,0
02.06.2020 06:00:00 6,5 5,4 5,3 14,0 19,5 15,2 0 0 2 1 N 1022,3 58 20 0,0
02.06.2020 05:00:00 6,5 5,2 4,8 14,7 20,1 15,2 0 0 3 2 N 1022,7 57 0 0,0
02.06.2020 04:00:00 7,1 5,4 5,3 15,6 20,8 15,2 3 1 4 2 ESE 1022,6 62 0 0,0
02.06.2020 03:00:00 8,4 6,2 5,9 16,7 21,5 15,1 2 1 4 2 WSW 1022,8 63 0 0,0
02.06.2020 02:00:00 10,9 6,5 7,2 17,9 22,3 15,1 3 2 4 2 NNE 1022,9 70 0 0,0
02.06.2020 01:00:00 11,4 6,4 8,4 19,3 23,0 15,1 2 1 6 4 S 1023,1 71 0 0,0
02.06.2020 00:00:00 16,1 5,4 13,7 20,8 23,7 15,1 5 3 13 7 NE 1023,0 62 0 0,0
01.06.2020 23:00:00 17,8 5,4 16,1 22,3 24,4 15,1 10 5 17 9 ENE 1022,8 65 0 0,0
01.06.2020 22:00:00 19,3 5,5 17,8 24,2 25,0 15,1 9 5 29 15 ENE 1022,7 65 2 0,0
01.06.2020 21:00:00 21,4 5,7 20,8 26,6 25,4 15,1 14 7 33 18 ENE 1022,2 64 60 0,0
01.06.2020 20:00:00 23,7 4,2 24,4 29,0 25,5 15,1 8 4 28 15 NE 1021,9 71 60 0,0
01.06.2020 19:00:00 24,4 3,0 26,5 30,9 25,4 15,1 10 5 28 15 NNE 1022,1 48 60 0,0
01.06.2020 18:00:00 24,9 2,9 27,9 32,6 24,9 15,1 11 6 29 16 NNE 1022,1 73 60 0,0
01.06.2020 17:00:00 25,2 3,0 28,3 33,6 24,2 15,1 11 6 35 19 NNE 1022,4 52 60 0,0
01.06.2020 16:00:00 24,8 3,0 28,9 33,8 23,2 15,1 11 6 35 19 NE 1022,9 60 60 0,0
01.06.2020 15:00:00 24,0 4,0 28,7 33,4 22,0 15,1 13 7 29 15 NE 1023,5 64 60 0,0
01.06.2020 14:00:00 22,5 5,5 28,9 32,2 20,7 15,0 11 6 27 14 NE 1024,1 75 60 0,0
01.06.2020 13:00:00 21,7 5,7 28,2 30,2 19,3 15,0 13 7 29 15 NE 1024,7 68 60 0,0
01.06.2020 12:00:00 20,3 5,8 25,2 27,6 18,1 15,0 13 7 23 12 NE 1025,0 72 60 0,0
01.06.2020 11:00:00 18,1 7,2 23,6 24,1 17,1 15,0 10 5 19 10 N 1025,4 75 60 0,0
01.06.2020 10:00:00 16,3 6,7 19,3 20,4 16,4 15,0 6 3 16 9 NE 1025,7 61 60 0,0
01.06.2020 09:00:00 13,9 6,3 18,6 16,8 16,2 15,0 6 4 14 8 NNE 1025,6 52 60 0,0
01.06.2020 08:00:00 11,8 5,8 14,7 13,4 16,3 14,9 6 3 11 6 NNE 1025,6 51 60 0,0
01.06.2020 07:00:00 9,6 5,7 9,3 11,5 16,8 14,9 2 1 4 2 N 1025,3 55 60 0,0
01.06.2020 06:00:00 4,6 3,4 3,4 11,6 17,4 14,9 2 1 6 3 SE 1025,1 61 21 0,0
01.06.2020 05:00:00 5,5 4,0 3,5 12,2 18,0 14,9 3 2 6 4 E 1024,9 61 0 0,0
01.06.2020 04:00:00 5,7 3,8 3,4 13,0 18,7 14,9 3 2 6 3 S 1024,9 65 0 0,0
01.06.2020 03:00:00 7,2 3,8 4,1 14,0 19,3 14,9 2 1 10 5 NNE 1025,0 71 0 0,0
01.06.2020 02:00:00 8,7 3,4 4,8 15,1 20,1 14,9 3 1 11 6 N 1024,9 67 0 0,0
01.06.2020 01:00:00 11,4 3,2 9,0 16,3 20,8 14,8 5 3 16 9 NNE 1024,8 71 0 0,0
01.06.2020 00:00:00 12,7 2,8 10,8 17,6 21,5 14,8 7 4 19 10 N 1024,6 62 0 0,0
31.05.2020 23:00:00 14,1 3,1 12,4 19,2 22,2 14,8 8 4 28 15 N 1024,4 60 0 0,0
31.05.2020 22:00:00 16,2 3,1 14,7 21,2 22,8 14,8 11 6 33 18 NNE 1024,2 63 2 0,0
31.05.2020 21:00:00 18,2 5,4 17,5 23,7 23,2 14,8 13 7 35 19 NNE 1023,5 62 60 0,0
31.05.2020 20:00:00 20,5 6,0 21,1 26,3 23,3 14,8 15 8 32 17 NE 1022,5 64 60 0,0
31.05.2020 19:00:00 21,5 5,4 23,2 28,3 23,1 14,8 13 7 46 25 NNE 1022,1 56 60 0,0
31.05.2020 18:00:00 22,1 4,9 24,9 29,7 22,6 14,8 11 6 31 17 NNE 1022,0 55 59 0,0
31.05.2020 17:00:00 22,1 5,1 24,9 30,6 21,8 14,8 10 6 29 16 NNE 1022,1 46 57 0,0
31.05.2020 16:00:00 21,5 6,0 24,5 30,5 20,8 14,8 13 7 31 17 NNE 1022,2 68 46 0,0
31.05.2020 15:00:00 21,0 6,0 26,0 29,7 19,7 14,8 12 6 33 18 NNE 1022,6 61 49 0,0
31.05.2020 14:00:00 21,1 6,3 26,4 28,1 18,6 14,8 13 7 33 18 NE 1022,8 53 46 0,0
31.05.2020 13:00:00 18,6 6,0 21,6 24,7 17,7 14,8 10 6 29 16 N 1023,2 75 8 0,0
31.05.2020 12:00:00 17,8 7,0 21,6 23,1 16,9 14,8 11 6 27 15 N 1023,5 66 18 0,0
31.05.2020 11:00:00 16,6 6,4 20,1 21,3 16,2 14,8 14 8 35 19 N 1023,8 60 29 0,0
31.05.2020 10:00:00 14,9 6,5 17,9 17,7 15,8 14,8 13 7 24 13 N 1023,9 57 2 0,0
31.05.2020 09:00:00 13,5 6,6 15,1 15,7 15,7 14,8 9 5 22 12 N 1024,0 60 3 0,0
31.05.2020 08:00:00 12,5 6,5 14,6 14,2 15,7 14,8 11 6 22 12 N 1024,1 67 55 0,0
31.05.2020 07:00:00 9,7 5,4 10,3 12,3 15,9 14,7 6 3 12 7 N 1024,1 60 0 0,0
31.05.2020 06:00:00 8,6 5,0 8,3 11,7 16,4 14,7 6 4 11 6 N 1024,1 63 0 0,0
31.05.2020 05:00:00 7,8 4,7 6,7 11,7 16,9 14,7 8 4 13 7 N 1024,2 57 0 0,0
31.05.2020 04:00:00 7,6 4,1 6,2 12,1 17,4 14,7 7 4 10 6 N 1024,6 68 0 0,0
31.05.2020 03:00:00 7,8 3,8 5,1 12,8 18,0 14,7 5 3 9 5 N 1024,6 60 0 0,0
31.05.2020 02:00:00 9,0 3,4 6,3 13,6 18,7 14,7 4 2 12 6 N 1024,8 75 0 0,0
31.05.2020 01:00:00 10,5 3,2 7,9 14,7 19,3 14,6 5 3 17 9 NNE 1024,8 69 0 0,0
31.05.2020 00:00:00 11,9 3,0 10,3 15,8 20,0 14,6 7 4 21 12 NNE 1024,6 64 0 0,0
30.05.2020 23:00:00 13,1 4,0 11,5 17,2 20,6 14,6 8 4 20 11 NNE 1024,3 58 0 0,0
30.05.2020 22:00:00 14,6 3,6 13,1 18,8 21,2 14,6 10 5 24 13 NNE 1024,2 65 0 0,0
30.05.2020 21:00:00 15,9 3,3 15,0 20,8 21,6 14,6 8 4 27 14 N 1023,7 50 60 0,0
30.05.2020 20:00:00 16,9 2,5 17,7 22,4 21,9 14,6 12 6 36 20 NE 1024,0 54 53 0,0
30.05.2020 19:00:00 17,4 3,1 18,3 23,7 22,0 14,6 17 9 29 16 NE 1023,6 55 26 0,0
30.05.2020 18:00:00 17,7 3,3 18,5 24,8 22,0 14,6 17 9 31 17 ENE 1023,6 68 0 0,0
30.05.2020 17:00:00 19,9 2,1 23,2 27,8 21,6 14,6 16 9 33 18 N 1023,7 56 29 0,0
30.05.2020 16:00:00 19,2 3,0 21,4 27,1 21,1 14,6 14 7 36 19 NE 1024,2 47 7 0,0
30.05.2020 15:00:00 19,9 2,0 24,3 28,1 20,4 14,6 14 8 34 18 NE 1024,6 64 18 0,0
30.05.2020 14:00:00 19,3 1,2 22,8 28,8 19,3 14,6 14 8 40 21 NNE 1025,0 69 40 0,0
30.05.2020 13:00:00 19,8 1,8 25,2 26,9 18,2 14,6 16 9 48 26 NE 1025,4 67 44 0,0
30.05.2020 12:00:00 19,1 1,8 23,7 23,9 17,2 14,5 14 8 32 17 NE 1025,8 54 44 0,0
30.05.2020 11:00:00 18,0 2,6 22,4 22,4 16,3 14,5 9 5 24 13 NE 1026,2 75 60 0,0
30.05.2020 10:00:00 15,6 3,1 19,1 18,2 15,9 14,5 8 4 24 13 NE 1026,7 51 56 0,0
30.05.2020 09:00:00 12,7 4,7 15,7 14,9 15,9 14,5 7 4 11 6 N 1027,2 56 6 0,0
30.05.2020 08:00:00 10,9 5,8 11,4 13,4 16,0 14,5 4 2 9 5 N 1027,3 59 0 0,0
30.05.2020 07:00:00 9,8 5,1 9,9 12,8 16,4 14,4 6 3 9 5 N 1027,3 52 0 0,0
30.05.2020 06:00:00 7,8 6,6 8,0 12,5 16,8 14,4 3 1 5 3 NNW 1027,5 44 0 0,0
30.05.2020 05:00:00 6,8 5,9 6,8 12,4 17,3 14,4 0 0 3 2 N 1027,3 43 0 0,0
30.05.2020 04:00:00 5,5 4,6 4,6 12,3 18,0 14,4 2 1 3 2 ENE 1027,2 47 0 0,0
30.05.2020 03:00:00 6,0 4,8 3,5 13,3 18,7 14,4 2 1 3 2 SE 1027,1 48 0 0,0
30.05.2020 02:00:00 7,3 5,9 5,1 14,4 19,4 14,3 0 0 3 1 N 1027,3 49 0 0,0
30.05.2020 01:00:00 8,9 6,9 6,1 15,6 20,1 14,3 2 1 5 3 NNE 1027,1 57 0 0,0
30.05.2020 00:00:00 10,4 6,8 7,6 17,0 20,8 14,3 3 1 4 2 NNE 1027,1 62 0 0,0
29.05.2020 23:00:00 11,8 7,4 9,5 18,8 21,5 14,3 0 0 7 4 N 1026,8 53 0 0,0
29.05.2020 22:00:00 15,2 4,7 11,7 20,4 22,0 14,3 4 2 8 4 ENE 1026,5 68 0 0,0
29.05.2020 21:00:00 18,4 3,4 16,6 22,8 22,5 14,3 4 2 10 6 N 1026,2 69 50 0,0
29.05.2020 20:00:00 18,8 2,8 18,4 24,4 22,7 14,3 6 4 18 10 NNE 1026,4 67 22 0,0
29.05.2020 19:00:00 20,7 2,9 23,0 26,9 22,5 14,3 7 4 19 10 NNE 1026,7 58 25 0,0

tt = temperature
td = dewpoint
tt 5cm = temperature 5cm
tt -5cm = temperature -5cm
tt -20cm = temperature -20cm
tt -100cm = temperature -100cm
ff = wind speed
fx = gusts
dd = wind direction
ppp = reduced air pressure
vv = visibility
sd = sunshine duration
rr = precipitation

Next stations